Location: Waco, TX
(31.5480°N, 97.1670°W)
Time: 03:35:20
(UTC-06:00)

ISS - Pass Details

Date: 11 November 2017
Orbit: 402 x 407 km, 51.6° (Epoch: 23 November)

Event Time Altitude Azimuth Distance (km) Brightness Sun altitude
Rises 07:28:08 0° 331° (NNW) 2,313 -0.5 6.0°
Reaches altitude 10° 07:30:49 10° 355° (N) 1,452 -1.3 6.5°
Maximum altitude 07:32:54 16° 35° (NE) 1,153 -1.4 6.9°
Drops below altitude 10° 07:34:59 10° 75° (ENE) 1,449 -0.1 7.3°
Sets 07:37:38 0° 98° (E) 2,306 1.7 7.8°
